This demonstration page uses our WeatherBlox Daily Observations layout. Learn more.

Left ArrowRight Arrow

39.92423, -83.80882

Hourly Observations for August 23, 2022

Temp ( °F °C ) Dew Point ( °F °C ) Humidity (%) Winds ( mph kmh ) Pressure ( in mb ) Visibility ( mi km ) Precip ( " mm )
12:42 am 00:42 Mostly Clear N/A N/A N/A SW 3 6 30.07 1018 8 13 0.00 0.00
12:56 am 00:56 Clear N/A N/A N/A WSW 3 6 30.07 1018 8 13 0.00 0.00
1:56 am 01:56 Hazy N/A N/A N/A SW 3 6 30.06 1018 5 8 0.00 0.00
2:47 am 02:47 Clear with Mist and Fog N/A N/A N/A Calm 30.05 1018 3 4 0.00 0.00
2:56 am 02:56 Hazy N/A N/A N/A Calm 30.04 1017 6 10 0.00 0.00
4:04 am 04:04 Clear with Mist and Fog N/A N/A N/A W 3 6 30.04 1017 2 3 0.00 0.00
4:13 am 04:13 Clear with Mist and Fog N/A N/A N/A W 5 7 30.04 1017 1 2 0.00 0.00
4:31 am 04:31 Clear with Mist and Fog N/A N/A N/A W 5 7 30.04 1017 2 3 0.00 0.00
4:43 am 04:43 Clear with Mist and Fog N/A N/A N/A W 6 9 30.04 1017 3 5 0.00 0.00
4:56 am 04:56 Hazy N/A N/A N/A W 5 7 30.03 1017 4 6 0.00 0.00
5:16 am 05:16 Clear with Mist and Fog N/A N/A N/A Calm 30.04 1017 2 3 0.00 0.00
5:23 am 05:23 Clear with Mist and Fog N/A N/A N/A Calm 30.03 1017 1 2 0.00 0.00
5:37 am 05:37 Clear with Mist and Fog N/A N/A N/A W 3 6 30.03 1017 2 3 0.00 0.00
5:43 am 05:43 Clear with Mist and Fog N/A N/A N/A WNW 3 6 30.03 1017 1 2 0.00 0.00
5:46 am 05:46 Clear with Fog N/A N/A N/A W 3 6 30.03 1017 1 1 0.00 0.00
5:56 am 05:56 Clear with Mist and Fog N/A N/A N/A WNW 3 6 30.03 1017 2 3 0.00 0.00
6:04 am 06:04 Clear with Mist and Fog N/A N/A N/A WNW 3 6 30.03 1017 3 4 0.00 0.00
6:47 am 06:47 Clear with Fog N/A N/A N/A W 3 6 30.04 1017 1 1 0.00 0.00
6:56 am 06:56 Partly Cloudy with Fog N/A N/A N/A WNW 3 6 30.04 1017 1 1 0.00 0.00
7:03 am 07:03 Mostly Cloudy with Fog N/A N/A N/A NW 6 9 30.04 1017 0 0 0.00 0.00
8:01 am 08:01 Partly Cloudy with Mist and Fog N/A N/A N/A Calm 30.06 1018 1 2 0.00 0.00
8:12 am 08:12 Partly Cloudy with Mist and Fog N/A N/A N/A NW 5 7 30.06 1018 3 4 0.00 0.00
8:20 am 08:20 Hazy N/A N/A N/A NW 5 7 30.06 1018 4 6 0.00 0.00
8:56 am 08:56 Sunny 65 18.3 N/A N/A NNW 5 7 30.01 1016 10 16 0.00 0.00
9:56 am 09:56 Sunny 71 21.7 63 17.2 76 76 NNW 5 7 29.99 1015 10 16 0.00 0.00
10:56 am 10:56 Mostly Cloudy 73 22.8 64 17.8 73 73 VRB 5 7 29.99 1016 10 16 0.00 0.00
11:56 am 11:56 Sunny 75 23.9 64 17.8 69 69 WSW 6 9 30.00 1016 10 16 0.00 0.00
12:56 pm 12:56 Sunny 76 24.4 62 16.7 62 62 VRB 6 9 29.99 1015 10 16 0.00 0.00
1:56 pm 13:56 Sunny 78 25.6 59 15 52 52 VRB 6 9 29.97 1015 10 16 0.00 0.00
2:56 pm 14:56 Sunny 79 26.1 59 15 50 50 VRB 7 11 29.96 1014 10 16 0.00 0.00
3:56 pm 15:56 Sunny 80 26.7 60 15.6 51 51 W 9 15 29.95 1014 10 16 0.00 0.00
4:56 pm 16:56 Sunny 80 26.7 54 12.2 41 41 WNW 10 17 29.94 1014 10 16 0.00 0.00
5:56 pm 17:56 Sunny 79 26.1 55 12.8 44 44 W 9 15 29.94 1014 10 16 0.00 0.00
6:56 pm 18:56 Sunny 76 24.4 59 15 56 56 NW 7 11 29.95 1014 10 16 0.00 0.00
7:56 pm 19:56 Sunny 73 22.8 60 15.6 64 64 NW 6 9 29.96 1015 10 16 0.00 0.00
8:56 pm 20:56 Clear 67 19.4 59 15 76 76 NNW 5 7 30.00 1016 10 16 0.00 0.00
9:56 pm 21:56 Clear 62 16.7 N/A N/A Calm 30.01 1016 10 16 0.00 0.00
10:56 pm 22:56 Clear 60 15.6 N/A N/A Calm 30.02 1017 10 16 0.00 0.00
11:37 pm 23:37 Mostly Clear N/A N/A N/A Calm 30.10 1019 10 16 0.00 0.00
11:56 pm 23:56 Clear N/A N/A N/A Calm 30.10 1019 10 16 0.00 0.00

Powered by AerisWeather